Weather in Bakhmut

Russia / Republic of Bashkortostan     52°39′29″N   55°54′32″E
temp.,
°C
wind,
m/s
gust,
m/s
humid.,
%
clouds,
%
prec.,
mm/h
press.,
hPa
HPBL,
m
28 february, sun
sun2823:00−6se359698 0.6 1002127
02:00−4se379798 0.8 1001232
05:00−1ssw379898 2.1 1000371
08:00−2s2598100 1.1 999214
11:00−1sw3598100 2.3 999391
14:000sw35100100 1.0 1000429
17:00−1w469899 1.6 1002370
20:00−7w239797 0.4 100562
1 march, mon
mon123:00−10wnw229798 0.7 100855
02:00−13wnw119793 0.1 101120
05:00−13w119793 0.3 101320
08:00−14w019799 0.1 101520
11:00−12wsw119195 0.3 1016252
14:00−10w2289100 0.2 1017377
17:00−10w2391100 0.3 1018330
20:00−14w239798 0.3 101971
2 march, tue
tue223:00−17sw129996 0.3 102020
02:00−18sw1299100 0.1 102020
05:00−22sw22100100 0.1 102020
08:00−24ssw33100100 0.0 102038
11:00−20s4799100 0.1 1018241
14:00−18s61098100 0.0 1016316
17:00−15s71294100 0.1 1014419
20:00−14s81493100 0.3 1011504
3 march, wed
wed323:00−11s71593100 0.8 1009521
02:00−6s81594100 0.8 1005706
05:00−4ssw81495100 2.8 1003760
08:00−4ssw71296100 1.5 1001632
11:00−3sw61096100 2.7 1000581
14:00−2wsw5794100 0.6 1000614
17:00−2wsw4796100 0.9 1001521
20:00−4w4897100 0.9 1002414
4 march, thu
thu423:00−5nw4895100 1.2 1004321
02:00−8wnw1297100 0.2 100522
05:00−8w2397100 0.3 100656
08:00−9w229792 0.3 100846
11:00−7nw469495 0.7 1010432
14:00−6nw468999 0.1 1011562
17:00−8w589188 0.1 1013463
20:00−13sw369861 0.0 1014106